Tracking 27112 objects as of 27-Mar-2023
HD Live streaming from Space Station
objects crossing your sky now

STARLINK-3119

Track STARLINK-3119 now!
10-day predictions
STARLINK-3119 is classified as:


NORAD ID: 49145
Int'l Code: 2021-082R
Perigee: 577.3 km
Apogee: 581.1 km
Inclination: 70.0 °
Period: 96.1 minutes
Semi major axis: 6950 km
RCS: Unknown
Launch date: September 14, 2021
Source: United States (US)
Launch site: AIR FORCE WESTERN TEST RANGE (AFWTR)
Your satellite tracking list
Your tracking list is empty




NASA's NSSDC Master Catalog

Two Line Element Set (TLE):
1 49145U 21082R   23085.74495298  .00001070  00000-0  97455-4 0  9994
2 49145  69.9988  94.8572 0002698 256.8663 103.2195 14.98321548 85346
Source of the keplerian elements: AFSPC